Time,TemperatureF,DewpointF,PressureIn,WindDirection,WindDirectionDegrees,WindSpeedMPH,WindSpeedGustMPH,Humidity,HourlyPrecipIn,Conditions,Clouds,dailyrainin,SoftwareType,DateUTC
2013-03-07 00:01:00,38.3,37.3,30.12,SW,217,3.0,8.0,96,0.00,,---,0.00,VWS V13.01,2013-03-07 08:01:00,
2013-03-07 00:31:00,38.9,37.9,30.11,South,184,4.0,10.0,96,0.00,,---,0.00,VWS V13.01,2013-03-07 08:31:00,
2013-03-07 01:01:00,38.6,37.6,30.11,SSW,200,0.0,11.0,96,0.00,,---,0.00,VWS V13.01,2013-03-07 09:01:00,
2013-03-07 01:31:00,38.8,37.8,30.11,SSW,198,4.0,10.0,96,0.00,,---,0.00,VWS V13.01,2013-03-07 09:31:00,
2013-03-07 02:01:00,39.1,38.1,30.10,SSW,198,5.0,8.0,96,0.00,,---,0.00,VWS V13.01,2013-03-07 10:01:00,
2013-03-07 02:31:00,39.3,38.3,30.10,SE,134,3.0,9.0,96,0.00,,---,0.00,VWS V13.01,2013-03-07 10:31:00,
2013-03-07 03:01:00,39.3,38.5,30.09,SW,216,3.0,10.0,97,0.00,,---,0.00,VWS V13.01,2013-03-07 11:01:00,
2013-03-07 03:31:00,38.9,38.1,30.10,SW,214,2.0,12.0,97,0.01,,---,0.01,VWS V13.01,2013-03-07 11:31:00,
2013-03-07 04:01:00,38.6,38.1,30.10,SSW,203,5.0,7.0,98,0.01,,---,0.01,VWS V13.01,2013-03-07 12:01:00,
2013-03-07 04:31:00,38.3,37.8,30.14,SW,218,3.0,10.0,98,0.01,,---,0.01,VWS V13.01,2013-03-07 12:31:00,
2013-03-07 05:01:00,38.2,37.7,30.14,SW,222,5.0,9.0,98,0.01,,---,0.02,VWS V13.01,2013-03-07 13:01:00,
2013-03-07 05:31:00,38.3,37.8,30.15,SW,228,0.0,8.0,98,0.01,,---,0.02,VWS V13.01,2013-03-07 13:31:00,
2013-03-07 06:01:00,38.3,37.8,30.15,SW,217,0.0,5.0,98,0.01,,---,0.02,VWS V13.01,2013-03-07 14:01:00,
2013-03-07 06:31:00,38.9,38.6,30.17,South,189,0.0,5.0,99,0.00,,---,0.02,VWS V13.01,2013-03-07 14:31:00,
2013-03-07 07:01:00,39.3,39.0,30.17,SSE,161,0.0,6.0,99,0.00,,---,0.02,VWS V13.01,2013-03-07 15:01:00,
2013-03-07 07:31:00,39.8,39.5,30.17,SW,228,0.0,6.0,99,0.01,,---,0.03,VWS V13.01,2013-03-07 15:31:00,
2013-03-07 08:01:00,40.3,40.0,30.18,South,172,3.0,7.0,99,0.01,,---,0.03,VWS V13.01,2013-03-07 16:01:00,
2013-03-07 08:31:00,40.9,40.6,30.17,WSW,241,2.0,7.0,99,0.02,,---,0.04,VWS V13.01,2013-03-07 16:31:00,
2013-03-07 09:01:00,41.3,41.0,30.16,SSE,158,2.0,10.0,99,0.02,,---,0.05,VWS V13.01,2013-03-07 17:01:00,
2013-03-07 09:31:00,41.3,41.0,30.16,NW,319,6.0,11.0,99,0.02,,---,0.05,VWS V13.01,2013-03-07 17:31:00,
2013-03-07 10:01:00,41.9,41.6,30.17,West,259,4.0,12.0,99,0.01,,---,0.05,VWS V13.01,2013-03-07 18:01:00,
2013-03-07 10:31:00,41.8,41.5,30.16,SSW,207,7.0,12.0,99,0.02,,---,0.07,VWS V13.01,2013-03-07 18:31:00,
2013-03-07 11:01:00,42.1,41.8,30.17,SW,233,5.0,13.0,99,0.02,,---,0.07,VWS V13.01,2013-03-07 19:01:00,
2013-03-07 11:31:00,40.9,40.6,30.17,WSW,256,7.0,18.0,99,0.03,,---,0.08,VWS V13.01,2013-03-07 19:31:00,
2013-03-07 12:31:00,41.8,40.2,30.14,SW,231,3.0,18.0,94,0.01,,---,0.08,VWS V13.01,2013-03-07 20:31:00,
2013-03-07 13:01:00,42.2,38.9,30.12,SW,215,5.0,16.0,88,0.00,,---,0.08,VWS V13.01,2013-03-07 21:01:00,
2013-03-07 13:31:00,42.2,38.9,30.11,WNW,290,5.0,19.0,88,0.00,,---,0.08,VWS V13.01,2013-03-07 21:31:00,
2013-03-07 14:01:00,41.8,38.2,30.12,WNW,285,6.0,18.0,87,0.00,,---,0.08,VWS V13.01,2013-03-07 22:01:00,
2013-03-07 14:31:00,41.1,36.6,30.11,NW,307,6.0,16.0,84,0.00,,---,0.08,VWS V13.01,2013-03-07 22:31:00,
2013-03-07 15:01:00,41.3,34.7,30.11,SW,225,11.0,18.0,77,0.00,,---,0.08,VWS V13.01,2013-03-07 23:01:00,
2013-03-07 15:31:00,40.9,33.6,30.10,SSW,211,8.0,19.0,75,0.00,,---,0.08,VWS V13.01,2013-03-07 23:31:00,
2013-03-07 16:01:00,40.3,36.8,30.09,WSW,245,6.0,18.0,87,0.00,,---,0.08,VWS V13.01,2013-03-08 00:01:00,
2013-03-07 16:31:00,39.3,36.3,30.12,West,269,12.0,17.0,89,0.00,,---,0.08,VWS V13.01,2013-03-08 00:31:00,
2013-03-07 17:01:00,38.8,35.8,30.12,WSW,240,6.0,18.0,89,0.00,,---,0.08,VWS V13.01,2013-03-08 01:01:00,
2013-03-07 17:31:00,38.3,35.6,30.12,WSW,250,14.0,17.0,90,0.00,,---,0.08,VWS V13.01,2013-03-08 01:31:00,
2013-03-07 18:01:00,37.9,35.5,30.12,SSW,200,9.0,18.0,91,0.00,,---,0.08,VWS V13.01,2013-03-08 02:01:00,
2013-03-07 18:31:00,37.8,35.7,30.11,NW,319,2.0,17.0,92,0.00,,---,0.08,VWS V13.01,2013-03-08 02:31:00,
2013-03-07 19:01:00,37.3,35.2,30.11,West,262,1.0,14.0,92,0.00,,---,0.08,VWS V13.01,2013-03-08 03:01:00,
2013-03-07 19:31:00,36.8,35.0,30.11,WSW,250,5.0,15.0,93,0.00,,---,0.08,VWS V13.01,2013-03-08 03:31:00,
2013-03-07 20:01:00,36.2,34.4,30.10,West,271,8.0,13.0,93,0.00,,---,0.08,VWS V13.01,2013-03-08 04:01:00,
2013-03-07 20:31:00,36.2,31.8,30.11,West,271,7.0,12.0,84,0.00,,---,0.08,VWS V13.01,2013-03-08 04:31:00,
2013-03-07 21:01:00,36.8,31.8,30.10,SW,232,8.0,13.0,82,0.00,,---,0.08,VWS V13.01,2013-03-08 05:01:00,
2013-03-07 21:31:00,36.5,32.1,30.09,West,269,0.0,14.0,84,0.00,,---,0.08,VWS V13.01,2013-03-08 05:31:00,
2013-03-07 22:01:00,36.9,33.1,30.08,SW,236,3.0,7.0,86,0.00,,---,0.08,VWS V13.01,2013-03-08 06:01:00,
2013-03-07 22:31:00,38.2,34.7,30.05,SW,236,5.0,14.0,87,0.00,,---,0.08,VWS V13.01,2013-03-08 06:31:00,
2013-03-07 23:01:00,38.5,34.7,30.05,WSW,243,5.0,14.0,86,0.00,,---,0.08,VWS V13.01,2013-03-08 07:01:00,
2013-03-07 23:31:00,38.9,35.7,30.04,West,266,5.0,15.0,88,0.01,,---,0.09,VWS V13.01,2013-03-08 07:31:00,